Location: Dreilärchen
(47.9312°N, 8.6113°E)
Time: 19:30:47
(UTC+00:00)

Cosmos 1610 Rocket - Pass Details

Date: 26 May 2022
Orbit: 952 x 1003 km, 82.9° (Epoch: 02 July)

Event Time Altitude Azimuth Distance (km) Brightness Sun altitude
Rises 01:38:33 0° 350° (N) 3,660 8.3 -14.5°
Reaches altitude 10° 01:41:04 10° 351° (N) 2,704 7.5 -14.3°
Maximum altitude 01:47:15 88° 79° (ENE) 962 4.5 -13.7°
Drops below altitude 10° 01:53:22 10° 172° (S) 2,671 6.4 -13.1°
Enters shadow 01:54:07 - 173° (S) 2,954 6.6 -13.1°
